This is the latest recevied weather packets stored in our database for station/object DG9MHV-10. If no packets are shown the sender has not sent any weather packets the latest 10 day(s).
| Time | Temp. | Humidity | Pressure | Rain* | Wind** | Luminosity | Snow |
|---|---|---|---|---|---|---|---|
| 1788533638 | 29.44° C | 100% | 1016.2 hPa | - | - | - | - |
| 1788532738 | 29.44° C | 100% | 1016.3 hPa | - | - | - | - |
| 1788531838 | 29.44° C | 100% | 1016.4 hPa | - | - | - | - |
| 1788530937 | 30° C | 100% | 1016.7 hPa | - | - | - | - |
| 1788530037 | 30° C | 100% | 1016.8 hPa | - | - | - | - |
| 1788529164 | 29.44° C | 100% | 1017 hPa | - | - | - | - |
| 1788528237 | 29.44° C | 100% | 1017.1 hPa | - | - | - | - |
| 1788527337 | 30° C | 100% | 1017.3 hPa | - | - | - | - |
| 1788526437 | 30° C | 100% | 1017.4 hPa | - | - | - | - |
| 1788525536 | 30° C | 100% | 1017.5 hPa | - | - | - | - |
| 1788524636 | 30° C | 100% | 1017.7 hPa | - | - | - | - |
| 1788523736 | 29.44° C | 100% | 1018 hPa | - | - | - | - |
| 1788522836 | 28.89° C | 100% | 1018.1 hPa | - | - | - | - |
| 1788521936 | 28.89° C | 100% | 1018.4 hPa | - | - | - | - |
| 1788521036 | 28.89° C | 100% | 1018.5 hPa | - | - | - | - |
| 1788520136 | 28.89° C | 100% | 1018.8 hPa | - | - | - | - |
| 1788519236 | 28.89° C | 100% | 1019 hPa | - | - | - | - |
| 1788518335 | 28.33° C | 100% | 1019.3 hPa | - | - | - | - |
| 1788517435 | 28.89° C | 100% | 1019.6 hPa | - | - | - | - |
| 1788516535 | 28.89° C | 100% | 1019.9 hPa | - | - | - | - |
| 1788515635 | 29.44° C | 100% | 1020.1 hPa | - | - | - | - |
| 1788514735 | 30.56° C | 100% | 1020.3 hPa | - | - | - | - |
| 1788513835 | 31.11° C | 100% | 1020.5 hPa | - | - | - | - |
| 1788512935 | 32.22° C | 100% | 1020.7 hPa | - | - | - | - |
| 1788512035 | 32.22° C | 100% | 1020.7 hPa | - | - | - | - |
* Rain since midnight (hover to see other rain measurements)
** Current wind speed in m/s (hover to see current wind gust speed)